Time,TemperatureF,DewpointF,PressureIn,WindDirection,WindDirectionDegrees,WindSpeedMPH,WindSpeedGustMPH,Humidity,HourlyPrecipIn,Conditions,Clouds,dailyrainin,SoftwareType,DateUTC
2013-01-29 00:02:00,32.0,29.4,29.64,SE,135,0.0,0.0,90,0.00,CLR,CLR,0.00,WeatherDisplay:10.37,2013-01-29 06:02:00,
2013-01-29 00:07:00,32.2,29.6,29.64,SE,135,0.0,0.0,90,0.00,CLR,CLR,0.00,WeatherDisplay:10.37,2013-01-29 06:07:00,
2013-01-29 00:12:00,32.0,29.4,29.64,SE,135,0.0,0.0,90,0.00,CLR,CLR,0.00,WeatherDisplay:10.37,2013-01-29 06:12:00,
2013-01-29 00:17:00,32.2,29.6,29.64,SE,135,0.0,0.0,90,0.00,CLR,CLR,0.00,WeatherDisplay:10.37,2013-01-29 06:17:00,
2013-01-29 00:23:00,32.2,29.8,29.63,SE,135,0.0,0.0,91,0.00,CLR,CLR,0.00,WeatherDisplay:10.37,2013-01-29 06:23:00,
2013-01-29 00:28:00,32.2,29.8,29.63,SE,135,0.0,0.0,91,0.00,CLR,CLR,0.00,WeatherDisplay:10.37,2013-01-29 06:28:00,
2013-01-29 00:33:00,32.2,29.8,29.63,SE,135,0.0,0.0,91,0.00,CLR,CLR,0.00,WeatherDisplay:10.37,2013-01-29 06:33:00,
2013-01-29 00:38:00,32.2,29.8,29.62,SE,135,0.0,0.0,91,0.00,CLR,CLR,0.00,WeatherDisplay:10.37,2013-01-29 06:38:00,
2013-01-29 00:44:00,32.2,29.8,29.63,SE,135,0.0,0.0,91,0.00,CLR,CLR,0.00,WeatherDisplay:10.37,2013-01-29 06:44:00,
2013-01-29 00:49:00,32.2,29.8,29.62,SE,135,0.0,0.0,91,0.00,CLR,CLR,0.00,WeatherDisplay:10.37,2013-01-29 06:49:00,
2013-01-29 00:54:00,32.2,29.6,29.61,SE,135,0.0,0.0,90,0.00,CLR,CLR,0.00,WeatherDisplay:10.37,2013-01-29 06:54:00,
2013-01-29 00:59:00,32.2,29.8,29.61,SE,135,0.0,0.0,91,0.00,CLR,CLR,0.00,WeatherDisplay:10.37,2013-01-29 06:59:00,
2013-01-29 01:05:00,32.2,29.8,29.61,SE,135,0.0,0.0,91,0.00,CLR,CLR,0.00,WeatherDisplay:10.37,2013-01-29 07:05:00,
2013-01-29 01:10:00,32.2,29.8,29.59,SE,135,0.0,0.0,91,0.00,CLR,CLR,0.00,WeatherDisplay:10.37,2013-01-29 07:10:00,
2013-01-29 01:15:00,32.2,29.6,29.59,SE,135,0.0,0.0,90,0.00,CLR,CLR,0.00,WeatherDisplay:10.37,2013-01-29 07:15:00,
2013-01-29 01:20:00,32.2,29.6,29.59,SE,135,0.0,0.0,90,0.00,CLR,CLR,0.00,WeatherDisplay:10.37,2013-01-29 07:20:00,
2013-01-29 01:25:00,32.2,29.6,29.59,SE,135,0.0,0.0,90,0.00,CLR,CLR,0.00,WeatherDisplay:10.37,2013-01-29 07:25:00,
2013-01-29 01:31:00,32.2,29.6,29.58,SE,135,0.0,0.0,90,0.00,CLR,CLR,0.00,WeatherDisplay:10.37,2013-01-29 07:31:00,
2013-01-29 01:36:00,31.8,29.2,29.59,SE,135,0.0,0.0,90,0.00,CLR,CLR,0.00,WeatherDisplay:10.37,2013-01-29 07:36:00,
2013-01-29 01:41:00,31.8,29.2,29.59,SE,135,0.0,0.0,90,0.00,CLR,CLR,0.00,WeatherDisplay:10.37,2013-01-29 07:41:00,
2013-01-29 01:46:00,31.8,29.2,29.57,SE,135,0.0,0.0,90,0.00,CLR,CLR,0.00,WeatherDisplay:10.37,2013-01-29 07:46:00,
2013-01-29 01:52:00,31.8,29.2,29.58,SE,135,0.0,0.0,90,0.00,CLR,CLR,0.00,WeatherDisplay:10.37,2013-01-29 07:52:00,
2013-01-29 01:57:00,31.6,29.0,29.59,SE,135,0.0,0.0,90,0.00,CLR,CLR,0.00,WeatherDisplay:10.37,2013-01-29 07:57:00,
2013-01-29 02:02:00,31.6,29.0,29.58,SE,135,0.0,0.0,90,0.00,CLR,CLR,0.00,WeatherDisplay:10.37,2013-01-29 08:02:00,
2013-01-29 02:07:00,31.6,29.0,29.58,SE,135,0.0,0.0,90,0.00,CLR,CLR,0.00,WeatherDisplay:10.37,2013-01-29 08:07:00,
2013-01-29 02:13:00,31.6,29.0,29.57,SE,135,0.0,0.0,90,0.00,CLR,CLR,0.00,WeatherDisplay:10.37,2013-01-29 08:13:00,
2013-01-29 02:18:00,31.6,29.0,29.57,SE,135,0.0,0.0,90,0.00,CLR,CLR,0.00,WeatherDisplay:10.37,2013-01-29 08:18:00,
2013-01-29 02:23:00,31.6,29.0,29.59,SE,135,0.0,0.0,90,0.00,CLR,CLR,0.00,WeatherDisplay:10.37,2013-01-29 08:23:00,
2013-01-29 02:28:00,31.6,29.0,29.59,SE,135,0.0,0.0,90,0.00,CLR,CLR,0.00,WeatherDisplay:10.37,2013-01-29 08:28:00,
2013-01-29 02:33:00,31.6,29.0,29.58,SE,135,0.0,0.0,90,0.00,CLR,CLR,0.00,WeatherDisplay:10.37,2013-01-29 08:33:00,
2013-01-29 02:39:00,31.6,29.0,29.60,SE,135,0.0,0.0,90,0.00,CLR,CLR,0.00,WeatherDisplay:10.37,2013-01-29 08:39:00,
2013-01-29 02:44:00,31.6,29.0,29.61,SE,135,0.0,0.0,90,0.00,CLR,CLR,0.00,WeatherDisplay:10.37,2013-01-29 08:44:00,
2013-01-29 02:49:00,31.6,29.0,29.61,SE,135,0.0,0.0,90,0.00,CLR,CLR,0.00,WeatherDisplay:10.37,2013-01-29 08:49:00,
2013-01-29 02:54:00,31.6,29.3,29.60,SE,135,0.0,0.0,91,0.00,CLR,CLR,0.00,WeatherDisplay:10.37,2013-01-29 08:54:00,
2013-01-29 02:59:00,31.6,29.3,29.57,SE,135,0.0,0.0,91,0.00,CLR,CLR,0.00,WeatherDisplay:10.37,2013-01-29 08:59:00,
2013-01-29 03:05:00,31.6,29.3,29.58,SE,135,0.0,0.0,91,0.00,CLR,CLR,0.00,WeatherDisplay:10.37,2013-01-29 09:05:00,
2013-01-29 03:10:00,31.6,29.3,29.58,SE,135,0.0,0.0,91,0.00,CLR,CLR,0.00,WeatherDisplay:10.37,2013-01-29 09:10:00,
2013-01-29 03:15:00,31.8,29.5,29.57,SE,135,0.0,0.0,91,0.00,CLR,CLR,0.00,WeatherDisplay:10.37,2013-01-29 09:15:00,
2013-01-29 03:20:00,31.8,29.5,29.58,SE,135,0.0,0.0,91,0.00,CLR,CLR,0.00,WeatherDisplay:10.37,2013-01-29 09:20:00,
2013-01-29 03:26:00,31.8,29.5,29.57,SE,135,0.0,0.0,91,0.00,CLR,CLR,0.00,WeatherDisplay:10.37,2013-01-29 09:26:00,
2013-01-29 03:31:00,31.8,29.2,29.57,SE,135,0.0,0.0,90,0.00,CLR,CLR,0.00,WeatherDisplay:10.37,2013-01-29 09:31:00,
2013-01-29 03:36:00,31.8,29.2,29.57,SE,135,0.0,0.0,90,0.00,CLR,CLR,0.00,WeatherDisplay:10.37,2013-01-29 09:36:00,
2013-01-29 03:41:00,31.8,29.2,29.56,SE,135,0.0,0.0,90,0.00,CLR,CLR,0.00,WeatherDisplay:10.37,2013-01-29 09:41:00,
2013-01-29 03:47:00,31.8,29.2,29.56,SE,135,0.0,0.0,90,0.00,CLR,CLR,0.00,WeatherDisplay:10.37,2013-01-29 09:47:00,
2013-01-29 03:52:00,31.6,29.3,29.57,SE,135,0.0,0.0,91,0.00,CLR,CLR,0.00,WeatherDisplay:10.37,2013-01-29 09:52:00,
2013-01-29 03:57:00,31.6,29.3,29.57,SE,135,0.0,0.0,91,0.00,CLR,CLR,0.00,WeatherDisplay:10.37,2013-01-29 09:57:00,
2013-01-29 04:02:00,31.3,29.0,29.58,SE,135,0.0,0.0,91,0.00,CLR,CLR,0.00,WeatherDisplay:10.37,2013-01-29 10:02:00,
2013-01-29 04:07:00,31.3,29.0,29.58,SE,135,0.0,0.0,91,0.00,CLR,CLR,0.00,WeatherDisplay:10.37,2013-01-29 10:07:00,
2013-01-29 04:13:00,31.3,29.0,29.59,SE,135,0.0,0.0,91,0.00,CLR,CLR,0.00,WeatherDisplay:10.37,2013-01-29 10:13:00,
2013-01-29 04:18:00,31.3,29.0,29.59,SE,135,0.0,0.0,91,0.00,CLR,CLR,0.00,WeatherDisplay:10.37,2013-01-29 10:18:00,
2013-01-29 04:23:00,31.3,29.0,29.58,SE,135,0.0,0.0,91,0.00,CLR,CLR,0.00,WeatherDisplay:10.37,2013-01-29 10:23:00,
2013-01-29 04:28:00,31.3,29.0,29.58,SE,135,0.0,0.0,91,0.00,CLR,CLR,0.00,WeatherDisplay:10.37,2013-01-29 10:28:00,
2013-01-29 04:34:00,31.6,29.3,29.57,SE,135,0.0,0.0,91,0.00,CLR,CLR,0.00,WeatherDisplay:10.37,2013-01-29 10:34:00,
2013-01-29 04:39:00,31.6,29.3,29.57,SE,135,0.0,0.0,91,0.00,CLR,CLR,0.00,WeatherDisplay:10.37,2013-01-29 10:39:00,
2013-01-29 04:44:00,31.5,29.1,29.56,SE,135,0.0,0.0,91,0.00,CLR,CLR,0.00,WeatherDisplay:10.37,2013-01-29 10:44:00,
2013-01-29 04:49:00,31.5,29.1,29.57,SE,135,0.0,0.0,91,0.00,CLR,CLR,0.00,WeatherDisplay:10.37,2013-01-29 10:49:00,
2013-01-29 04:55:00,31.5,29.1,29.57,SE,135,0.0,0.0,91,0.00,CLR,CLR,0.00,WeatherDisplay:10.37,2013-01-29 10:55:00,
2013-01-29 05:00:00,31.6,29.3,29.56,SE,135,0.0,0.0,91,0.00,CLR,CLR,0.00,WeatherDisplay:10.37,2013-01-29 11:00:00,
2013-01-29 05:05:00,31.3,29.0,29.57,SE,135,0.0,0.0,91,0.00,CLR,CLR,0.00,WeatherDisplay:10.37,2013-01-29 11:05:00,
2013-01-29 05:11:00,31.3,29.0,29.57,SE,135,0.0,0.0,91,0.00,CLR,CLR,0.00,WeatherDisplay:10.37,2013-01-29 11:11:00,
2013-01-29 05:16:00,31.3,29.0,29.57,SE,135,0.0,0.0,91,0.00,CLR,CLR,0.00,WeatherDisplay:10.37,2013-01-29 11:16:00,
2013-01-29 05:21:00,31.3,29.0,29.57,SE,135,0.0,0.0,91,0.00,CLR,CLR,0.00,WeatherDisplay:10.37,2013-01-29 11:21:00,
2013-01-29 05:26:00,31.3,29.2,29.58,SE,135,0.0,0.0,92,0.00,CLR,CLR,0.00,WeatherDisplay:10.37,2013-01-29 11:26:00,
2013-01-29 05:32:00,31.3,29.2,29.57,SE,135,0.0,0.0,92,0.00,CLR,CLR,0.00,WeatherDisplay:10.37,2013-01-29 11:32:00,
2013-01-29 05:37:00,31.3,29.2,29.55,SE,135,0.0,0.0,92,0.00,CLR,CLR,0.00,WeatherDisplay:10.37,2013-01-29 11:37:00,
2013-01-29 05:42:00,31.3,29.2,29.55,SE,135,0.0,0.0,92,0.00,CLR,CLR,0.00,WeatherDisplay:10.37,2013-01-29 11:42:00,
2013-01-29 05:47:00,31.3,29.2,29.54,SE,135,0.0,0.0,92,0.00,CLR,CLR,0.00,WeatherDisplay:10.37,2013-01-29 11:47:00,
2013-01-29 05:53:00,31.6,29.6,29.54,SE,135,0.0,0.0,92,0.00,CLR,CLR,0.00,WeatherDisplay:10.37,2013-01-29 11:53:00,
2013-01-29 05:58:00,31.5,29.4,29.54,SE,135,0.0,0.0,92,0.00,CLR,CLR,0.00,WeatherDisplay:10.37,2013-01-29 11:58:00,
2013-01-29 06:03:00,31.6,29.6,29.54,SE,135,0.0,0.0,92,0.00,CLR,CLR,0.00,WeatherDisplay:10.37,2013-01-29 12:03:00,
2013-01-29 06:09:00,31.6,29.6,29.53,SE,135,0.0,0.0,92,0.00,CLR,CLR,0.00,WeatherDisplay:10.37,2013-01-29 12:09:00,
2013-01-29 06:14:00,31.6,29.6,29.54,SE,135,0.0,0.0,92,0.00,CLR,CLR,0.00,WeatherDisplay:10.37,2013-01-29 12:14:00,
2013-01-29 06:19:00,31.5,29.4,29.53,SE,135,0.0,0.0,92,0.00,CLR,CLR,0.00,WeatherDisplay:10.37,2013-01-29 12:19:00,
2013-01-29 06:24:00,31.5,29.4,29.54,SE,135,0.0,0.0,92,0.00,CLR,CLR,0.00,WeatherDisplay:10.37,2013-01-29 12:24:00,
2013-01-29 06:30:00,31.5,29.4,29.53,SE,135,0.0,0.0,92,0.00,CLR,CLR,0.00,WeatherDisplay:10.37,2013-01-29 12:30:00,
2013-01-29 06:35:00,31.3,29.2,29.54,SE,135,0.0,0.0,92,0.00,CLR,CLR,0.00,WeatherDisplay:10.37,2013-01-29 12:35:00,
2013-01-29 06:40:00,31.3,29.2,29.53,SE,135,0.0,0.0,92,0.00,CLR,CLR,0.00,WeatherDisplay:10.37,2013-01-29 12:40:00,
2013-01-29 06:45:00,31.3,29.2,29.53,SE,135,0.0,0.0,92,0.00,CLR,CLR,0.00,WeatherDisplay:10.37,2013-01-29 12:45:00,
2013-01-29 06:50:00,31.1,29.0,29.53,SE,135,0.0,0.0,92,0.00,CLR,CLR,0.00,WeatherDisplay:10.37,2013-01-29 12:50:00,
2013-01-29 06:56:00,31.3,29.2,29.53,SE,135,0.0,0.0,92,0.00,CLR,CLR,0.00,WeatherDisplay:10.37,2013-01-29 12:56:00,
2013-01-29 07:01:00,31.3,29.2,29.54,SE,135,0.0,0.0,92,0.00,CLR,CLR,0.00,WeatherDisplay:10.37,2013-01-29 13:01:00,
2013-01-29 07:06:00,31.3,29.2,29.55,SE,135,0.0,0.0,92,0.00,CLR,CLR,0.00,WeatherDisplay:10.37,2013-01-29 13:06:00,
2013-01-29 07:11:00,31.6,29.6,29.55,SE,135,0.0,0.0,92,0.00,CLR,CLR,0.00,WeatherDisplay:10.37,2013-01-29 13:11:00,
2013-01-29 07:17:00,31.6,29.6,29.56,SE,135,0.0,0.0,92,0.00,CLR,CLR,0.00,WeatherDisplay:10.37,2013-01-29 13:17:00,
2013-01-29 07:22:00,31.8,29.8,29.57,SE,135,0.0,0.0,92,0.00,CLR,CLR,0.00,WeatherDisplay:10.37,2013-01-29 13:22:00,
2013-01-29 07:27:00,31.8,29.8,29.58,SE,135,0.0,0.0,92,0.00,CLR,CLR,0.00,WeatherDisplay:10.37,2013-01-29 13:27:00,
2013-01-29 07:32:00,32.0,29.9,29.59,SE,135,0.0,0.0,92,0.00,CLR,CLR,0.00,WeatherDisplay:10.37,2013-01-29 13:32:00,
2013-01-29 07:37:00,32.2,29.8,29.59,SE,135,0.0,0.0,91,0.00,CLR,CLR,0.00,WeatherDisplay:10.37,2013-01-29 13:37:00,
2013-01-29 07:42:00,32.2,29.8,29.60,SE,135,0.0,0.0,91,0.00,CLR,CLR,0.00,WeatherDisplay:10.37,2013-01-29 13:42:00,
2013-01-29 07:48:00,32.2,29.8,29.60,SE,135,0.0,0.0,91,0.00,CLR,CLR,0.00,WeatherDisplay:10.37,2013-01-29 13:48:00,
2013-01-29 07:53:00,32.2,29.8,29.61,SE,135,0.0,0.0,91,0.00,CLR,CLR,0.00,WeatherDisplay:10.37,2013-01-29 13:53:00,
2013-01-29 07:58:00,32.4,29.8,29.61,SE,135,0.0,0.0,90,0.00,CLR,CLR,0.00,WeatherDisplay:10.37,2013-01-29 13:58:00,
2013-01-29 08:03:00,32.4,29.8,29.61,SE,135,0.0,0.0,90,0.00,CLR,CLR,0.00,WeatherDisplay:10.37,2013-01-29 14:03:00,
2013-01-29 08:08:00,32.5,29.9,29.61,SE,135,0.0,0.0,90,0.00,CLR,CLR,0.00,WeatherDisplay:10.37,2013-01-29 14:08:00,
2013-01-29 08:14:00,32.5,29.7,29.61,SE,135,0.0,0.0,89,0.00,CLR,CLR,0.00,WeatherDisplay:10.37,2013-01-29 14:14:00,
2013-01-29 08:19:00,32.5,29.7,29.61,SE,135,0.0,0.0,89,0.00,CLR,CLR,0.00,WeatherDisplay:10.37,2013-01-29 14:19:00,
2013-01-29 08:24:00,32.5,29.7,29.62,SE,135,0.0,0.0,89,0.00,CLR,CLR,0.00,WeatherDisplay:10.37,2013-01-29 14:24:00,
2013-01-29 08:29:00,32.5,29.7,29.62,SE,135,0.0,0.0,89,0.00,CLR,CLR,0.00,WeatherDisplay:10.37,2013-01-29 14:29:00,
2013-01-29 08:34:00,32.7,29.8,29.62,SE,135,0.0,0.0,89,0.00,CLR,CLR,0.00,WeatherDisplay:10.37,2013-01-29 14:34:00,
2013-01-29 08:40:00,32.7,29.8,29.62,SE,135,0.0,0.0,89,0.00,CLR,CLR,0.00,WeatherDisplay:10.37,2013-01-29 14:40:00,
2013-01-29 08:45:00,32.7,29.6,29.62,SE,135,0.0,0.0,88,0.00,CLR,CLR,0.00,WeatherDisplay:10.37,2013-01-29 14:45:00,
2013-01-29 08:50:00,32.7,29.6,29.61,SE,135,0.0,0.0,88,0.00,CLR,CLR,0.00,WeatherDisplay:10.37,2013-01-29 14:50:00,
2013-01-29 08:55:00,32.9,29.7,29.61,SE,135,0.0,0.0,88,0.00,CLR,CLR,0.00,WeatherDisplay:10.37,2013-01-29 14:55:00,
2013-01-29 09:00:00,32.9,29.5,29.62,SE,135,0.0,0.0,87,0.00,CLR,CLR,0.00,WeatherDisplay:10.37,2013-01-29 15:00:00,
2013-01-29 09:05:00,32.7,29.3,29.63,SE,135,0.0,0.0,87,0.00,CLR,CLR,0.00,WeatherDisplay:10.37,2013-01-29 15:05:00,
2013-01-29 09:11:00,32.9,29.5,29.62,SE,135,0.0,0.0,87,0.00,CLR,CLR,0.00,WeatherDisplay:10.37,2013-01-29 15:11:00,
2013-01-29 09:16:00,33.1,29.3,29.62,SE,135,0.0,0.0,86,0.00,CLR,CLR,0.00,WeatherDisplay:10.37,2013-01-29 15:16:00,
2013-01-29 09:21:00,33.3,29.5,29.62,SE,135,0.0,0.0,86,0.00,CLR,CLR,0.00,WeatherDisplay:10.37,2013-01-29 15:21:00,
2013-01-29 09:26:00,33.3,29.2,29.61,SE,135,0.0,0.0,85,0.00,CLR,CLR,0.00,WeatherDisplay:10.37,2013-01-29 15:26:00,
2013-01-29 09:31:00,33.6,29.6,29.61,SE,135,0.0,0.0,85,0.00,CLR,CLR,0.00,WeatherDisplay:10.37,2013-01-29 15:31:00,
2013-01-29 09:37:00,33.8,29.8,29.61,SE,135,0.0,0.0,85,0.00,CLR,CLR,0.00,WeatherDisplay:10.37,2013-01-29 15:37:00,
2013-01-29 09:42:00,33.8,29.8,29.60,SE,135,0.0,0.0,85,0.00,CLR,CLR,0.00,WeatherDisplay:10.37,2013-01-29 15:42:00,
2013-01-29 09:47:00,34.2,30.1,29.60,SE,135,0.0,0.0,85,0.00,CLR,CLR,0.00,WeatherDisplay:10.37,2013-01-29 15:47:00,
2013-01-29 09:52:00,34.2,30.1,29.60,SE,135,0.0,0.0,85,0.00,CLR,CLR,0.00,WeatherDisplay:10.37,2013-01-29 15:52:00,
2013-01-29 09:57:00,34.3,30.0,29.60,SE,135,0.0,0.0,84,0.00,CLR,CLR,0.00,WeatherDisplay:10.37,2013-01-29 15:57:00,
2013-01-29 10:02:00,34.3,30.0,29.60,ESE,112,0.0,0.0,84,0.00,CLR,CLR,0.00,WeatherDisplay:10.37,2013-01-29 16:02:00,
2013-01-29 10:07:00,34.3,30.0,29.61,ESE,112,0.0,0.0,84,0.00,CLR,CLR,0.00,WeatherDisplay:10.37,2013-01-29 16:07:00,
2013-01-29 10:13:00,34.7,30.4,29.62,SW,225,2.8,4.6,84,0.00,CLR,CLR,0.00,WeatherDisplay:10.37,2013-01-29 16:13:00,
2013-01-29 10:18:00,35.2,30.6,29.63,WNW,292,6.6,6.9,83,0.00,CLR,CLR,0.00,WeatherDisplay:10.37,2013-01-29 16:18:00,
2013-01-29 10:23:00,34.9,29.9,29.63,West,270,7.2,8.1,82,0.00,CLR,CLR,0.00,WeatherDisplay:10.37,2013-01-29 16:23:00,
2013-01-29 10:28:00,34.7,29.8,29.63,WNW,292,8.6,11.5,82,0.00,CLR,CLR,0.00,WeatherDisplay:10.37,2013-01-29 16:28:00,
2013-01-29 10:33:00,34.3,29.4,29.63,NW,315,9.2,10.4,82,0.00,CLR,CLR,0.00,WeatherDisplay:10.37,2013-01-29 16:33:00,
2013-01-29 10:39:00,34.3,29.7,29.62,West,270,9.2,10.4,83,0.00,CLR,CLR,0.00,WeatherDisplay:10.37,2013-01-29 16:39:00,
2013-01-29 10:44:00,33.8,28.9,29.62,WNW,292,11.9,12.7,82,0.00,CLR,CLR,0.00,WeatherDisplay:10.37,2013-01-29 16:44:00,
2013-01-29 10:49:00,33.6,29.0,29.64,WNW,292,11.5,15.0,83,0.00,CLR,CLR,0.00,WeatherDisplay:10.37,2013-01-29 16:49:00,
2013-01-29 10:54:00,33.6,29.0,29.64,NW,315,10.9,12.7,83,0.00,CLR,CLR,0.00,WeatherDisplay:10.37,2013-01-29 16:54:00,
2013-01-29 10:59:00,33.6,28.7,29.65,WNW,292,7.3,8.1,82,0.00,CLR,CLR,0.00,WeatherDisplay:10.37,2013-01-29 16:59:00,
2013-01-29 11:05:00,34.0,29.1,29.66,NW,315,9.2,11.5,82,0.00,CLR,CLR,0.00,WeatherDisplay:10.37,2013-01-29 17:05:00,
2013-01-29 11:10:00,34.2,28.9,29.66,WNW,292,11.1,12.7,81,0.00,CLR,CLR,0.00,WeatherDisplay:10.37,2013-01-29 17:10:00,
2013-01-29 11:15:00,34.2,28.9,29.67,NW,315,7.3,9.2,81,0.00,CLR,CLR,0.00,WeatherDisplay:10.37,2013-01-29 17:15:00,
2013-01-29 11:20:00,34.5,29.3,29.68,NW,315,6.6,8.5,81,0.00,CLR,CLR,0.00,WeatherDisplay:10.37,2013-01-29 17:20:00,
2013-01-29 11:26:00,34.9,29.3,29.67,WNW,292,3.4,5.8,80,0.00,CLR,CLR,0.00,WeatherDisplay:10.37,2013-01-29 17:26:00,
2013-01-29 11:31:00,35.4,29.6,29.67,WNW,292,6.5,8.1,79,0.00,CLR,CLR,0.00,WeatherDisplay:10.37,2013-01-29 17:31:00,
2013-01-29 11:36:00,36.0,30.1,29.67,NNE,22,7.2,10.4,79,0.00,CLR,CLR,0.00,WeatherDisplay:10.37,2013-01-29 17:36:00,
2013-01-29 11:41:00,36.3,30.1,29.66,WNW,292,7.3,8.1,78,0.00,CLR,CLR,0.00,WeatherDisplay:10.37,2013-01-29 17:41:00,
2013-01-29 11:47:00,36.3,30.1,29.66,NW,315,9.9,10.4,78,0.00,CLR,CLR,0.00,WeatherDisplay:10.37,2013-01-29 17:47:00,
2013-01-29 11:52:00,36.3,29.8,29.66,WNW,292,8.1,9.2,77,0.00,CLR,CLR,0.00,WeatherDisplay:10.37,2013-01-29 17:52:00,
2013-01-29 11:57:00,36.0,29.1,29.66,West,270,8.5,10.4,76,0.00,CLR,CLR,0.00,WeatherDisplay:10.37,2013-01-29 17:57:00,
2013-01-29 12:02:00,35.4,28.9,29.66,West,270,6.8,9.2,77,0.00,CLR,CLR,0.00,WeatherDisplay:10.37,2013-01-29 18:02:00,
2013-01-29 12:08:00,35.2,28.8,29.66,NW,315,7.2,10.4,77,0.00,CLR,CLR,0.00,WeatherDisplay:10.37,2013-01-29 18:08:00,
2013-01-29 12:13:00,35.2,29.1,29.66,North,0,7.3,9.2,78,0.00,CLR,CLR,0.00,WeatherDisplay:10.37,2013-01-29 18:13:00,
2013-01-29 12:18:00,35.4,29.2,29.66,West,270,7.8,10.4,78,0.00,CLR,CLR,0.00,WeatherDisplay:10.37,2013-01-29 18:18:00,
2013-01-29 12:23:00,35.8,29.3,29.66,NW,315,8.0,9.2,77,0.00,CLR,CLR,0.00,WeatherDisplay:10.37,2013-01-29 18:23:00,
2013-01-29 12:28:00,35.8,29.0,29.66,NW,315,10.9,12.7,76,0.00,CLR,CLR,0.00,WeatherDisplay:10.37,2013-01-29 18:28:00,
2013-01-29 12:33:00,36.0,29.1,29.66,NW,315,8.9,12.3,76,0.00,CLR,CLR,0.00,WeatherDisplay:10.37,2013-01-29 18:33:00,
2013-01-29 12:39:00,35.8,29.0,29.65,WNW,292,8.7,11.5,76,0.00,CLR,CLR,0.00,WeatherDisplay:10.37,2013-01-29 18:39:00,
2013-01-29 12:44:00,35.8,29.0,29.64,NW,315,10.0,16.1,76,0.00,CLR,CLR,0.00,WeatherDisplay:10.37,2013-01-29 18:44:00,
2013-01-29 12:49:00,35.8,28.6,29.65,NW,315,9.7,12.7,75,0.00,CLR,CLR,0.00,WeatherDisplay:10.37,2013-01-29 18:49:00,
2013-01-29 12:54:00,36.0,28.8,29.64,WNW,292,12.1,13.8,75,0.00,CLR,CLR,0.00,WeatherDisplay:10.37,2013-01-29 18:54:00,
2013-01-29 12:59:00,35.6,28.1,29.64,NNE,22,6.8,12.7,74,0.00,CLR,CLR,0.00,WeatherDisplay:10.37,2013-01-29 18:59:00,
2013-01-29 13:04:00,35.4,28.3,29.65,NW,315,8.6,10.4,75,0.00,CLR,CLR,0.00,WeatherDisplay:10.37,2013-01-29 19:04:00,
2013-01-29 13:10:00,35.8,28.6,29.64,WNW,292,10.2,13.8,75,0.00,CLR,CLR,0.00,WeatherDisplay:10.37,2013-01-29 19:10:00,
2013-01-29 13:15:00,35.4,28.0,29.65,NNW,338,10.1,15.0,74,0.00,CLR,CLR,0.00,WeatherDisplay:10.37,2013-01-29 19:15:00,
2013-01-29 13:20:00,35.2,28.1,29.65,WNW,292,7.0,11.5,75,0.00,CLR,CLR,0.00,WeatherDisplay:10.37,2013-01-29 19:20:00,
2013-01-29 13:25:00,35.2,28.1,29.66,NW,315,8.6,9.2,75,0.00,CLR,CLR,0.00,WeatherDisplay:10.37,2013-01-29 19:25:00,
2013-01-29 13:31:00,35.4,28.3,29.66,NW,315,9.8,11.5,75,0.00,CLR,CLR,0.00,WeatherDisplay:10.37,2013-01-29 19:31:00,
2013-01-29 13:36:00,36.0,28.8,29.66,NW,315,9.6,13.8,75,0.00,CLR,CLR,0.00,WeatherDisplay:10.37,2013-01-29 19:36:00,
2013-01-29 13:41:00,36.0,28.5,29.66,WNW,292,9.2,13.8,74,0.00,CLR,CLR,0.00,WeatherDisplay:10.37,2013-01-29 19:41:00,
2013-01-29 13:46:00,35.8,28.3,29.65,WNW,292,9.3,16.1,74,0.00,CLR,CLR,0.00,WeatherDisplay:10.37,2013-01-29 19:46:00,
2013-01-29 13:51:00,35.8,28.3,29.66,NNW,338,8.9,10.4,74,0.00,CLR,CLR,0.00,WeatherDisplay:10.37,2013-01-29 19:51:00,
2013-01-29 13:57:00,36.0,28.5,29.65,North,0,9.5,11.5,74,0.00,CLR,CLR,0.00,WeatherDisplay:10.37,2013-01-29 19:57:00,
2013-01-29 13:58:00,36.1,28.6,29.66,NW,315,9.0,10.4,74,0.00,CLR,CLR,0.00,WeatherDisplay:10.37,2013-01-29 19:58:00,
2013-01-29 14:03:00,36.0,28.1,29.66,NW,315,10.1,12.7,73,0.00,CLR,CLR,0.00,WeatherDisplay:10.37,2013-01-29 20:03:00,
2013-01-29 14:08:00,35.8,28.0,29.65,WNW,292,9.5,12.7,73,0.00,CLR,CLR,0.00,WeatherDisplay:10.37,2013-01-29 20:08:00,
2013-01-29 14:13:00,35.8,27.6,29.65,NNW,338,9.3,10.4,72,0.00,CLR,CLR,0.00,WeatherDisplay:10.37,2013-01-29 20:13:00,
2013-01-29 14:19:00,35.8,27.6,29.65,WNW,292,7.6,10.4,72,0.00,CLR,CLR,0.00,WeatherDisplay:10.37,2013-01-29 20:19:00,
2013-01-29 14:24:00,35.8,27.6,29.65,WNW,292,11.3,16.1,72,0.00,CLR,CLR,0.00,WeatherDisplay:10.37,2013-01-29 20:24:00,
2013-01-29 14:29:00,35.2,27.1,29.65,NW,315,11.4,12.7,72,0.00,CLR,CLR,0.00,WeatherDisplay:10.37,2013-01-29 20:29:00,
2013-01-29 14:34:00,35.2,27.1,29.66,WNW,292,8.5,11.5,72,0.00,CLR,CLR,0.00,WeatherDisplay:10.37,2013-01-29 20:34:00,
2013-01-29 14:40:00,35.4,27.3,29.66,WNW,292,7.0,10.4,72,0.00,CLR,CLR,0.00,WeatherDisplay:10.37,2013-01-29 20:40:00,
2013-01-29 14:45:00,35.2,27.1,29.66,NNW,338,8.4,11.5,72,0.00,CLR,CLR,0.00,WeatherDisplay:10.37,2013-01-29 20:45:00,
2013-01-29 14:50:00,34.9,26.4,29.66,West,270,9.2,10.4,71,0.00,CLR,CLR,0.00,WeatherDisplay:10.37,2013-01-29 20:50:00,
2013-01-29 14:55:00,34.7,26.6,29.66,WNW,292,10.3,13.8,72,0.00,CLR,CLR,0.00,WeatherDisplay:10.37,2013-01-29 20:55:00,
2013-01-29 15:00:00,34.5,26.4,29.66,NW,315,9.2,11.5,72,0.00,CLR,CLR,0.00,WeatherDisplay:10.37,2013-01-29 21:00:00,
2013-01-29 15:05:00,34.5,26.4,29.66,West,270,8.5,11.5,72,0.00,CLR,CLR,0.00,WeatherDisplay:10.37,2013-01-29 21:05:00,
2013-01-29 15:11:00,34.3,26.2,29.66,WNW,292,10.4,11.5,72,0.00,CLR,CLR,0.00,WeatherDisplay:10.37,2013-01-29 21:11:00,
2013-01-29 15:16:00,34.0,26.2,29.67,WNW,292,12.3,12.3,73,0.00,CLR,CLR,0.00,WeatherDisplay:10.37,2013-01-29 21:16:00,
2013-01-29 15:21:00,33.6,25.9,29.67,WSW,248,8.5,9.6,73,0.00,CLR,CLR,0.00,WeatherDisplay:10.37,2013-01-29 21:21:00,
2013-01-29 15:26:00,33.1,25.7,29.68,NW,315,13.0,15.0,74,0.00,CLR,CLR,0.00,WeatherDisplay:10.37,2013-01-29 21:26:00,
2013-01-29 15:32:00,32.7,25.7,29.68,WNW,292,9.1,9.1,75,0.00,CLR,CLR,0.00,WeatherDisplay:10.37,2013-01-29 21:32:00,
2013-01-29 15:37:00,32.5,25.5,29.68,WNW,292,10.3,12.7,75,0.00,CLR,CLR,0.00,WeatherDisplay:10.37,2013-01-29 21:37:00,
2013-01-29 15:42:00,31.8,24.8,29.68,NNW,338,10.8,15.0,75,0.00,CLR,CLR,0.00,WeatherDisplay:10.37,2013-01-29 21:42:00,
2013-01-29 15:47:00,31.8,24.8,29.69,WNW,292,9.8,11.5,75,0.00,CLR,CLR,0.00,WeatherDisplay:10.37,2013-01-29 21:47:00,
2013-01-29 15:52:00,31.6,24.6,29.69,NNW,338,11.9,12.5,75,0.00,CLR,CLR,0.00,WeatherDisplay:10.37,2013-01-29 21:52:00,
2013-01-29 15:57:00,31.6,24.6,29.70,NW,315,11.0,13.8,75,0.00,CLR,CLR,0.00,WeatherDisplay:10.37,2013-01-29 21:57:00,
2013-01-29 16:02:00,31.3,24.3,29.70,WNW,292,10.1,11.5,75,0.00,CLR,CLR,0.00,WeatherDisplay:10.37,2013-01-29 22:02:00,
2013-01-29 16:07:00,30.9,24.2,29.71,NNW,338,10.6,12.7,76,0.00,CLR,CLR,0.00,WeatherDisplay:10.37,2013-01-29 22:07:00,
2013-01-29 16:12:00,30.9,24.2,29.70,WNW,292,7.4,9.2,76,0.00,CLR,CLR,0.00,WeatherDisplay:10.37,2013-01-29 22:12:00,
2013-01-29 16:18:00,30.9,24.6,29.69,North,0,9.1,10.4,77,0.00,CLR,CLR,0.00,WeatherDisplay:10.37,2013-01-29 22:18:00,
2013-01-29 16:23:00,30.7,24.1,29.70,WNW,292,11.4,16.1,76,0.00,CLR,CLR,0.00,WeatherDisplay:10.37,2013-01-29 22:23:00,
2013-01-29 16:28:00,30.7,24.1,29.70,WNW,292,7.7,15.2,76,0.00,CLR,CLR,0.00,WeatherDisplay:10.37,2013-01-29 22:28:00,
2013-01-29 16:33:00,30.6,24.2,29.69,NW,315,9.9,15.0,77,0.00,CLR,CLR,0.00,WeatherDisplay:10.37,2013-01-29 22:33:00,
2013-01-29 16:39:00,30.4,24.0,29.69,WNW,292,10.3,15.0,77,0.00,CLR,CLR,0.00,WeatherDisplay:10.37,2013-01-29 22:39:00,
2013-01-29 16:44:00,30.2,23.9,29.70,WNW,292,8.7,12.7,77,0.00,CLR,CLR,0.00,WeatherDisplay:10.37,2013-01-29 22:44:00,
2013-01-29 16:49:00,30.0,24.0,29.70,NNW,338,8.5,11.5,78,0.00,CLR,CLR,0.00,WeatherDisplay:10.37,2013-01-29 22:49:00,
2013-01-29 16:54:00,30.0,24.0,29.69,NW,315,9.7,11.8,78,0.00,CLR,CLR,0.00,WeatherDisplay:10.37,2013-01-29 22:54:00,
2013-01-29 16:59:00,30.0,24.0,29.70,WNW,292,8.0,11.5,78,0.00,CLR,CLR,0.00,WeatherDisplay:10.37,2013-01-29 22:59:00,
2013-01-29 17:05:00,30.0,24.0,29.70,NW,315,7.3,11.5,78,0.00,CLR,CLR,0.00,WeatherDisplay:10.37,2013-01-29 23:05:00,
2013-01-29 17:10:00,30.0,24.0,29.69,NW,315,11.1,13.8,78,0.00,CLR,CLR,0.00,WeatherDisplay:10.37,2013-01-29 23:10:00,
2013-01-29 17:15:00,30.0,24.0,29.69,NNW,338,5.5,10.5,78,0.00,CLR,CLR,0.00,WeatherDisplay:10.37,2013-01-29 23:15:00,
2013-01-29 17:20:00,29.8,23.8,29.70,NNW,338,11.1,13.8,78,0.00,CLR,CLR,0.00,WeatherDisplay:10.37,2013-01-29 23:20:00,
2013-01-29 17:25:00,29.8,23.8,29.69,North,0,8.9,11.5,78,0.00,CLR,CLR,0.00,WeatherDisplay:10.37,2013-01-29 23:25:00,
2013-01-29 17:30:00,29.5,23.5,29.69,NW,315,9.7,13.8,78,0.00,CLR,CLR,0.00,WeatherDisplay:10.37,2013-01-29 23:30:00,
2013-01-29 17:36:00,29.3,23.3,29.70,NNE,22,9.8,13.8,78,0.00,CLR,CLR,0.00,WeatherDisplay:10.37,2013-01-29 23:36:00,
2013-01-29 17:41:00,29.3,23.3,29.70,NNW,338,11.1,16.1,78,0.00,CLR,CLR,0.00,WeatherDisplay:10.37,2013-01-29 23:41:00,
2013-01-29 17:46:00,29.1,23.1,29.70,NE,45,10.7,12.7,78,0.00,CLR,CLR,0.00,WeatherDisplay:10.37,2013-01-29 23:46:00,
2013-01-29 17:51:00,29.1,23.1,29.71,NNW,338,9.4,13.8,78,0.00,CLR,CLR,0.00,WeatherDisplay:10.37,2013-01-29 23:51:00,
2013-01-29 17:56:00,29.1,23.1,29.71,NNW,338,11.4,13.8,78,0.00,CLR,CLR,0.00,WeatherDisplay:10.37,2013-01-29 23:56:00,
2013-01-29 18:01:00,29.1,23.1,29.72,NNE,22,11.8,13.8,78,0.00,CLR,CLR,0.00,WeatherDisplay:10.37,2013-01-30 00:01:00,
2013-01-29 18:06:00,28.9,22.9,29.72,North,0,14.9,18.4,78,0.00,CLR,CLR,0.00,WeatherDisplay:10.37,2013-01-30 00:06:00,
2013-01-29 18:11:00,28.9,22.9,29.72,NNW,338,11.0,12.7,78,0.00,CLR,CLR,0.00,WeatherDisplay:10.37,2013-01-30 00:11:00,
2013-01-29 18:17:00,28.9,22.9,29.72,NNW,338,9.5,11.5,78,0.00,CLR,CLR,0.00,WeatherDisplay:10.37,2013-01-30 00:17:00,
2013-01-29 18:22:00,28.9,22.9,29.72,North,0,9.5,11.5,78,0.00,CLR,CLR,0.00,WeatherDisplay:10.37,2013-01-30 00:22:00,
2013-01-29 18:27:00,28.8,22.8,29.73,North,0,8.7,10.4,78,0.00,CLR,CLR,0.00,WeatherDisplay:10.37,2013-01-30 00:27:00,
2013-01-29 18:32:00,28.8,22.8,29.73,NW,315,12.1,12.1,78,0.00,CLR,CLR,0.00,WeatherDisplay:10.37,2013-01-30 00:32:00,
2013-01-29 18:38:00,28.8,22.8,29.73,NNE,22,9.1,9.2,78,0.00,CLR,CLR,0.00,WeatherDisplay:10.37,2013-01-30 00:38:00,
2013-01-29 18:43:00,28.6,22.6,29.72,NNW,338,8.6,12.7,78,0.00,CLR,CLR,0.00,WeatherDisplay:10.37,2013-01-30 00:43:00,
2013-01-29 18:48:00,28.6,22.6,29.73,NNE,22,8.6,11.5,78,0.00,CLR,CLR,0.00,WeatherDisplay:10.37,2013-01-30 00:48:00,
2013-01-29 18:53:00,28.6,22.6,29.73,NNW,338,12.9,15.0,78,0.00,CLR,CLR,0.00,WeatherDisplay:10.37,2013-01-30 00:53:00,
2013-01-29 18:58:00,28.6,22.6,29.74,NNW,338,9.5,12.5,78,0.00,CLR,CLR,0.00,WeatherDisplay:10.37,2013-01-30 00:58:00,
2013-01-29 19:03:00,28.6,22.6,29.73,North,0,7.6,10.4,78,0.00,CLR,CLR,0.00,WeatherDisplay:10.37,2013-01-30 01:03:00,
2013-01-29 19:08:00,28.4,22.4,29.72,NNW,338,11.8,15.0,78,0.00,CLR,CLR,0.00,WeatherDisplay:10.37,2013-01-30 01:08:00,
2013-01-29 19:13:00,28.2,22.2,29.72,NW,315,6.8,11.5,78,0.00,CLR,CLR,0.00,WeatherDisplay:10.37,2013-01-30 01:13:00,
2013-01-29 19:19:00,28.2,22.2,29.72,NNW,338,8.6,9.2,78,0.00,CLR,CLR,0.00,WeatherDisplay:10.37,2013-01-30 01:19:00,
2013-01-29 19:24:00,28.2,22.5,29.72,NNE,22,8.7,13.8,79,0.00,CLR,CLR,0.00,WeatherDisplay:10.37,2013-01-30 01:24:00,
2013-01-29 19:29:00,28.2,22.5,29.73,NNW,338,8.2,10.5,79,0.00,CLR,CLR,0.00,WeatherDisplay:10.37,2013-01-30 01:29:00,
2013-01-29 19:34:00,28.2,22.5,29.72,NNW,338,9.4,10.4,79,0.00,CLR,CLR,0.00,WeatherDisplay:10.37,2013-01-30 01:34:00,
2013-01-29 19:39:00,28.0,22.4,29.73,North,0,7.4,10.4,79,0.00,CLR,CLR,0.00,WeatherDisplay:10.37,2013-01-30 01:39:00,
2013-01-29 19:44:00,28.0,22.4,29.74,North,0,9.5,13.8,79,0.00,CLR,CLR,0.00,WeatherDisplay:10.37,2013-01-30 01:44:00,
2013-01-29 19:50:00,28.0,22.4,29.74,North,0,8.1,10.4,79,0.00,CLR,CLR,0.00,WeatherDisplay:10.37,2013-01-30 01:50:00,
2013-01-29 19:55:00,28.0,22.4,29.74,NW,315,7.6,11.5,79,0.00,CLR,CLR,0.00,WeatherDisplay:10.37,2013-01-30 01:55:00,
2013-01-29 20:00:00,28.0,22.4,29.75,WNW,292,11.5,13.8,79,0.00,CLR,CLR,0.00,WeatherDisplay:10.37,2013-01-30 02:00:00,
2013-01-29 20:05:00,28.0,22.4,29.74,NW,315,9.0,16.1,79,0.00,CLR,CLR,0.00,WeatherDisplay:10.37,2013-01-30 02:05:00,
2013-01-29 20:10:00,28.0,22.4,29.74,NW,315,7.2,8.1,79,0.00,CLR,CLR,0.00,WeatherDisplay:10.37,2013-01-30 02:10:00,
2013-01-29 20:15:00,28.0,22.4,29.74,NW,315,7.9,11.5,79,0.00,CLR,CLR,0.00,WeatherDisplay:10.37,2013-01-30 02:15:00,
2013-01-29 20:21:00,27.9,22.2,29.74,North,0,9.3,12.7,79,0.00,CLR,CLR,0.00,WeatherDisplay:10.37,2013-01-30 02:21:00,
2013-01-29 20:26:00,27.7,22.0,29.75,NNW,338,5.8,9.2,79,0.00,CLR,CLR,0.00,WeatherDisplay:10.37,2013-01-30 02:26:00,
2013-01-29 20:31:00,27.7,22.0,29.76,NNW,338,7.8,8.1,79,0.00,CLR,CLR,0.00,WeatherDisplay:10.37,2013-01-30 02:31:00,
2013-01-29 20:36:00,27.7,22.0,29.76,NW,315,8.7,10.9,79,0.00,CLR,CLR,0.00,WeatherDisplay:10.37,2013-01-30 02:36:00,
2013-01-29 20:41:00,27.5,21.8,29.76,North,0,8.9,9.2,79,0.00,CLR,CLR,0.00,WeatherDisplay:10.37,2013-01-30 02:41:00,
2013-01-29 20:46:00,27.3,21.7,29.76,NNW,338,5.6,8.1,79,0.00,CLR,CLR,0.00,WeatherDisplay:10.37,2013-01-30 02:46:00,
2013-01-29 20:52:00,27.3,21.7,29.76,North,0,7.4,10.4,79,0.00,CLR,CLR,0.00,WeatherDisplay:10.37,2013-01-30 02:52:00,
2013-01-29 20:57:00,27.1,21.5,29.76,North,0,10.2,11.5,79,0.00,CLR,CLR,0.00,WeatherDisplay:10.37,2013-01-30 02:57:00,
2013-01-29 21:02:00,27.1,21.5,29.77,NNW,338,11.0,12.7,79,0.00,CLR,CLR,0.00,WeatherDisplay:10.37,2013-01-30 03:02:00,
2013-01-29 21:07:00,27.1,21.5,29.76,NNW,338,10.4,12.1,79,0.00,CLR,CLR,0.00,WeatherDisplay:10.37,2013-01-30 03:07:00,
2013-01-29 21:13:00,27.0,21.3,29.76,NW,315,12.8,15.0,79,0.00,CLR,CLR,0.00,WeatherDisplay:10.37,2013-01-30 03:13:00,
2013-01-29 21:18:00,27.0,21.3,29.75,NNW,338,9.2,13.8,79,0.00,CLR,CLR,0.00,WeatherDisplay:10.37,2013-01-30 03:18:00,
2013-01-29 21:23:00,26.8,21.1,29.74,NNW,338,13.6,17.3,79,0.00,CLR,CLR,0.00,WeatherDisplay:10.37,2013-01-30 03:23:00,
2013-01-29 21:28:00,26.8,21.1,29.74,NW,315,10.9,13.8,79,0.00,CLR,CLR,0.00,WeatherDisplay:10.37,2013-01-30 03:28:00,
2013-01-29 21:33:00,26.6,21.0,29.74,NW,315,8.9,13.2,79,0.00,CLR,CLR,0.00,WeatherDisplay:10.37,2013-01-30 03:33:00,
2013-01-29 21:39:00,26.6,21.3,29.74,NW,315,10.5,13.8,80,0.00,CLR,CLR,0.00,WeatherDisplay:10.37,2013-01-30 03:39:00,
2013-01-29 21:44:00,26.4,21.1,29.75,NNW,338,12.5,13.8,80,0.00,CLR,CLR,0.00,WeatherDisplay:10.37,2013-01-30 03:44:00,
2013-01-29 21:49:00,26.4,21.1,29.74,NW,315,9.3,12.7,80,0.00,CLR,CLR,0.00,WeatherDisplay:10.37,2013-01-30 03:49:00,
2013-01-29 21:54:00,26.2,20.9,29.75,NNW,338,8.7,10.4,80,0.00,CLR,CLR,0.00,WeatherDisplay:10.37,2013-01-30 03:54:00,
2013-01-29 21:59:00,26.1,20.7,29.75,NNW,338,9.8,13.6,80,0.00,CLR,CLR,0.00,WeatherDisplay:10.37,2013-01-30 03:59:00,
2013-01-29 22:05:00,25.9,20.6,29.76,NNW,338,11.8,13.8,80,0.00,CLR,CLR,0.00,WeatherDisplay:10.37,2013-01-30 04:05:00,
2013-01-29 22:10:00,25.7,20.4,29.77,North,0,11.0,11.5,80,0.00,CLR,CLR,0.00,WeatherDisplay:10.37,2013-01-30 04:10:00,
2013-01-29 22:15:00,25.7,20.4,29.78,North,0,8.0,11.5,80,0.00,CLR,CLR,0.00,WeatherDisplay:10.37,2013-01-30 04:15:00,
2013-01-29 22:20:00,25.7,20.4,29.77,NNW,338,11.7,16.1,80,0.00,CLR,CLR,0.00,WeatherDisplay:10.37,2013-01-30 04:20:00,
2013-01-29 22:25:00,25.5,20.2,29.77,North,0,11.7,13.8,80,0.00,CLR,CLR,0.00,WeatherDisplay:10.37,2013-01-30 04:25:00,
2013-01-29 22:30:00,25.5,20.2,29.78,WNW,292,8.6,10.4,80,0.00,CLR,CLR,0.00,WeatherDisplay:10.37,2013-01-30 04:30:00,
2013-01-29 22:35:00,25.3,19.7,29.78,WNW,292,13.0,17.3,79,0.00,CLR,CLR,0.00,WeatherDisplay:10.37,2013-01-30 04:35:00,
2013-01-29 22:40:00,25.3,19.7,29.79,NW,315,12.0,13.8,79,0.00,CLR,CLR,0.00,WeatherDisplay:10.37,2013-01-30 04:40:00,
2013-01-29 22:46:00,25.3,19.7,29.79,WNW,292,11.2,13.8,79,0.00,CLR,CLR,0.00,WeatherDisplay:10.37,2013-01-30 04:46:00,
2013-01-29 22:51:00,25.3,19.7,29.78,North,0,5.3,7.2,79,0.00,CLR,CLR,0.00,WeatherDisplay:10.37,2013-01-30 04:51:00,
2013-01-29 22:56:00,25.3,19.7,29.78,NW,315,10.0,16.1,79,0.00,CLR,CLR,0.00,WeatherDisplay:10.37,2013-01-30 04:56:00,
2013-01-29 23:03:00,25.3,19.7,29.78,NW,315,11.4,11.5,79,0.00,CLR,CLR,0.00,WeatherDisplay:10.37,2013-01-30 05:03:00,
2013-01-29 23:04:00,25.3,19.7,29.78,NNW,338,8.5,13.8,79,0.00,CLR,CLR,0.00,WeatherDisplay:10.37,2013-01-30 05:04:00,
2013-01-29 23:09:00,25.3,19.7,29.77,North,0,11.0,12.7,79,0.00,CLR,CLR,0.00,WeatherDisplay:10.37,2013-01-30 05:09:00,
2013-01-29 23:15:00,25.2,19.6,29.77,NW,315,7.3,8.1,79,0.00,CLR,CLR,0.00,WeatherDisplay:10.37,2013-01-30 05:15:00,
2013-01-29 23:20:00,25.2,19.6,29.77,NNW,338,7.3,16.1,79,0.00,CLR,CLR,0.00,WeatherDisplay:10.37,2013-01-30 05:20:00,
2013-01-29 23:25:00,25.2,19.6,29.77,NNW,338,10.1,13.8,79,0.00,CLR,CLR,0.00,WeatherDisplay:10.37,2013-01-30 05:25:00,
2013-01-29 23:30:00,25.0,19.4,29.76,NNW,338,9.0,12.7,79,0.00,CLR,CLR,0.00,WeatherDisplay:10.37,2013-01-30 05:30:00,
2013-01-29 23:35:00,25.0,19.4,29.77,NW,315,8.6,12.1,79,0.00,CLR,CLR,0.00,WeatherDisplay:10.37,2013-01-30 05:35:00,
2013-01-29 23:40:00,25.0,19.4,29.77,NNW,338,10.3,15.0,79,0.00,CLR,CLR,0.00,WeatherDisplay:10.37,2013-01-30 05:40:00,
2013-01-29 23:46:00,25.0,19.4,29.76,NNW,338,10.3,16.1,79,0.00,CLR,CLR,0.00,WeatherDisplay:10.37,2013-01-30 05:46:00,
2013-01-29 23:51:00,25.0,19.1,29.75,North,0,10.6,11.5,78,0.00,CLR,CLR,0.00,WeatherDisplay:10.37,2013-01-30 05:51:00,
2013-01-29 23:56:00,24.8,18.9,29.76,NNW,338,10.9,17.3,78,0.00,CLR,CLR,0.00,WeatherDisplay:10.37,2013-01-30 05:56:00,